Wilmington, OH

6:59 AM EDT on October 22, 2017 (GMT -0400)
Airborne

Weather History for KILN - January, 2013

Change the Weather History Date:

Friday, January 25, 2013

  Actual Average (KFFO) Record (KFFO)
Temperature  
Mean Temperature 20 °F -  
Max Temperature 24 °F 34 °F 55 °F (2017)
Min Temperature 17 °F 17 °F -7 °F (2000)
Degree Days  
Heating Degree Days 44    
Moisture  
Dew Point 14 °F    
Average Humidity 78    
Maximum Humidity 93    
Minimum Humidity 57    
Precipitation  
Precipitation 0.11 in - - ()
Sea Level Pressure  
Sea Level Pressure 30.17 in    
Wind  
Wind Speed 9 mph (SSE)    
Max Wind Speed 15 mph    
Max Gust Speed 17 mph    
Visibility 6 miles    
Events Fog , Snow    
Averages and records for this station are not official NWS values.
T = Trace of Precipitation, MM = Missing Value Source: NWS Daily Summary

Daily Weather History Graph

Daily Weather History Graph

Search for Another Location

Airport or City:

Trip Planner

Search our weather history database for the weather conditions in past years. The results will help you decide how hot, cold, wet, or windy it might be!

Date:

Astronomy

Jan. 25, 2013 Rise Set
Actual Time 7:47 AM EST 5:47 PM EST
Civil Twilight 7:19 AM EST 6:16 PM EST
Nautical Twilight 6:46 AM EST 6:48 PM EST
Astronomical Twilight 6:14 AM EST 7:20 PM EST
Moon 4:43 PM EST (1/25) 6:26 AM EST (1/25)
Length of Visible Light 10h 57m
Length of Day
9h 59m
Waxing Gibbous, 98% of the Moon is Illuminated
Jan 25
Waxing Gibbous
Jan 26
Full
Feb 3
Last Quarter
Feb 10
New
Feb 17
First Quarter

Hourly Weather History & Observations

Time (EST) Temp. Windchill Dew Point Humidity Pressure Visibility Wind Dir Wind Speed Gust Speed Precip Events Conditions
12:54 AM 18.0 °F 6.1 °F 9.0 °F 68% 30.51 in 10.0 mi ESE 10.4 mph - N/A   Clear
1:54 AM 18.0 °F 3.6 °F 8.1 °F 65% 30.45 in 10.0 mi ESE 15.0 mph - N/A   Clear
2:54 AM 19.0 °F 8.2 °F 7.0 °F 59% 30.45 in 10.0 mi ESE 9.2 mph 17.3 mph N/A   Mostly Cloudy
3:54 AM 19.0 °F 9.0 °F 6.1 °F 57% 30.43 in 10.0 mi ESE 8.1 mph - N/A   Overcast
4:54 AM 19.0 °F 7.5 °F 8.1 °F 62% 30.37 in 10.0 mi ESE 10.4 mph - N/A   Overcast
5:54 AM 19.0 °F 11.1 °F 6.1 °F 57% 30.36 in 10.0 mi ESE 5.8 mph - N/A   Overcast
6:54 AM 19.0 °F 6.8 °F 6.1 °F 57% 30.30 in 10.0 mi ESE 11.5 mph - N/A   Overcast
7:54 AM 19.0 °F 6.8 °F 6.1 °F 57% 30.28 in 10.0 mi ESE 11.5 mph - N/A   Overcast
8:52 AM 19.4 °F 7.2 °F 8.6 °F 63% 30.14 in 1.8 mi ESE 11.5 mph - 0.00 in Snow Light Snow
8:54 AM 18.0 °F 5.4 °F 8.1 °F 65% 30.27 in 1.2 mi SE 11.5 mph - 0.00 in Snow Light Snow
8:57 AM 17.6 °F 6.4 °F 8.6 °F 68% 30.15 in 0.8 mi SE 9.2 mph - 0.00 in Snow Light Snow
9:16 AM 17.6 °F 7.3 °F 12.2 °F 79% 30.14 in 0.2 mi ESE 8.1 mph - 0.01 in Fog , Snow Snow
9:34 AM 17.6 °F 5.0 °F 14.0 °F 86% 30.12 in 0.2 mi SE 11.5 mph - 0.02 in Fog , Snow Snow
9:54 AM 17.1 °F 4.3 °F 14.0 °F 88% 30.21 in 0.2 mi SE 11.5 mph - 0.03 in Fog , Snow Snow
10:03 AM 17.6 °F 5.7 °F 14.0 °F 86% 30.09 in 0.2 mi SE 10.4 mph - 0.01 in Fog , Snow Snow
10:17 AM 17.6 °F 5.7 °F 15.8 °F 93% 30.09 in 0.5 mi ESE 10.4 mph - 0.02 in Fog , Snow Snow
10:35 AM 17.6 °F 7.3 °F 15.8 °F 93% 30.09 in 0.8 mi East 8.1 mph - 0.04 in Snow Light Snow
10:54 AM 18.0 °F 8.7 °F 15.1 °F 88% 30.21 in 1.0 mi East 6.9 mph - 0.05 in Snow Light Snow
11:18 AM 17.6 °F 9.3 °F 14.0 °F 86% 30.10 in 0.8 mi East 5.8 mph - 0.01 in Snow Light Snow
11:54 AM 18.0 °F 12.7 °F 15.1 °F 88% 30.20 in 1.0 mi East 3.5 mph - 0.03 in Snow Light Snow
12:07 PM 17.6 °F 9.3 °F 15.8 °F 93% 30.07 in 2.0 mi ESE 5.8 mph - 0.00 in Snow Light Snow
12:19 PM 17.6 °F 9.3 °F 15.8 °F 93% 30.06 in 1.2 mi SE 5.8 mph - 0.00 in Snow Light Snow
12:30 PM 19.4 °F 12.8 °F 15.8 °F 86% 30.07 in 3.0 mi SSE 4.6 mph - 0.00 in   Overcast
12:54 PM 19.0 °F 11.1 °F 15.1 °F 85% 30.16 in 9.0 mi SSE 5.8 mph - 0.00 in   Overcast
1:54 PM 21.0 °F 13.4 °F 16.0 °F 81% 30.13 in 10.0 mi South 5.8 mph - N/A   Overcast
2:29 PM 21.2 °F 13.6 °F 15.8 °F 80% 30.01 in 10.0 mi WSW 5.8 mph - N/A   Overcast
2:54 PM 21.9 °F 12.5 °F 17.1 °F 82% 30.11 in 10.0 mi WSW 8.1 mph - N/A   Overcast
3:51 PM 23.0 °F 14.7 °F 17.6 °F 80% 30.00 in 10.0 mi WSW 6.9 mph - N/A   Overcast
3:54 PM 23.0 °F 13.1 °F 18.0 °F 81% 30.11 in 10.0 mi WSW 9.2 mph - N/A   Overcast
4:23 PM 23.0 °F 13.9 °F 17.6 °F 80% 30.00 in 10.0 mi West 8.1 mph - N/A   Overcast
4:33 PM 23.0 °F 12.4 °F 17.6 °F 80% 30.01 in 10.0 mi West 10.4 mph - N/A   Overcast
4:54 PM 23.0 °F 12.4 °F 18.0 °F 81% 30.12 in 10.0 mi WSW 10.4 mph - N/A   Overcast
5:37 PM 23.0 °F 13.1 °F 17.6 °F 80% 30.03 in 8.0 mi West 9.2 mph - N/A   Overcast
5:54 PM 23.0 °F 13.9 °F 18.0 °F 81% 30.14 in 8.0 mi West 8.1 mph - N/A   Overcast
6:03 PM 23.0 °F 13.1 °F 17.6 °F 80% 30.03 in 9.0 mi West 9.2 mph - N/A   Overcast
6:54 PM 23.0 °F 15.8 °F 18.0 °F 81% 30.15 in 10.0 mi West 5.8 mph - N/A   Overcast
7:54 PM 23.0 °F 13.9 °F 19.0 °F 85% 30.16 in 9.0 mi SW 8.1 mph - N/A   Overcast
8:54 PM 24.1 °F 13.7 °F 19.0 °F 81% 30.18 in 9.0 mi WSW 10.4 mph - N/A   Overcast
9:54 PM 24.1 °F 15.2 °F 19.9 °F 84% 30.21 in 7.0 mi West 8.1 mph - N/A   Overcast
10:54 PM 24.1 °F 14.4 °F 19.9 °F 84% 30.20 in 8.0 mi SSW 9.2 mph - N/A   Overcast
11:54 PM 24.1 °F 14.4 °F 19.9 °F 84% 30.20 in 7.0 mi SW 9.2 mph - N/A   Overcast